• In Netherlands
  • List of Countries
  • For 7 days
  • Water Temperature
  • Satellite Maps
  • Weather Map
  • Weather Widgets
  • user-avatar
    Login

    Hourly Weather Borovec

    Today, 21 February, Tuesday

    Time Temperature Precipitation Wind Pressure Humidity
    00:00 -2°C° 0 mm 1 mps 712 mmHg 85%
    01:00 -2°C° 0 mm 1 mps 711 mmHg 83%
    02:00 -5°C° 0 mm 2 mps 711 mmHg 84%
    03:00 -5°C° 0 mm 2 mps 710 mmHg 83%
    04:00 -5°C° 0 mm 2 mps 710 mmHg 83%
    05:00 -5°C° 0 mm 2 mps 710 mmHg 82%
    06:00 -5°C° 0 mm 2 mps 710 mmHg 80%
    07:00 -4°C° 0 mm 2 mps 710 mmHg 79%
    08:00 -4°C° 0 mm 2 mps 710 mmHg 77%
    09:00 -2°C° 0 mm 2 mps 710 mmHg 75%
    10:00 +2°C° 0 mm 2 mps 710 mmHg 72%
    11:00 +4°C° 0 mm 2 mps 710 mmHg 69%
    12:00 +5°C° 0 mm 2 mps 710 mmHg 68%
    13:00 +6°C° 0 mm 2 mps 710 mmHg 67%
    14:00 +7°C° 0 mm 2 mps 709 mmHg 66%
    15:00 +6°C° 0 mm 2 mps 709 mmHg 65%
    16:00 +6°C° 0 mm 2 mps 709 mmHg 70%
    17:00 +6°C° 0 mm 1 mps 708 mmHg 75%
    18:00 +4°C° 0 mm 2 mps 708 mmHg 75%
    19:00 +2°C° 0 mm 2 mps 708 mmHg 75%
    20:00 +1°C° 0 mm 2 mps 708 mmHg 76%
    21:00 +1°C° 0 mm 2 mps 708 mmHg 74%
    22:00 +1°C° 0 mm 2 mps 709 mmHg 72%
    23:00 +1°C° 0 mm 2 mps 709 mmHg 70%

    Tomorrow, 22 February, Wednesday

    Time Temperature Precipitation Wind Pressure Humidity
    00:00 +1°C° 0 mm 2 mps 709 mmHg 70%
    01:00 +2°C° 0 mm 2 mps 709 mmHg 71%
    02:00 +2°C° 0 mm 2 mps 710 mmHg 71%
    03:00 +2°C° 0 mm 2 mps 710 mmHg 72%
    04:00 +1°C° 0 mm 2 mps 710 mmHg 73%
    05:00 +1°C° 0 mm 2 mps 709 mmHg 74%
    06:00 +1°C° 0 mm 2 mps 710 mmHg 74%
    07:00 +2°C° 0 mm 2 mps 710 mmHg 74%
    08:00 +2°C° 0 mm 2 mps 710 mmHg 75%
    09:00 +4°C° 0 mm 2 mps 711 mmHg 73%
    10:00 +6°C° 0 mm 2 mps 711 mmHg 71%
    11:00 +8°C° 0 mm 2 mps 711 mmHg 70%
    12:00 +9°C° 0 mm 2 mps 711 mmHg 69%
    13:00 +10°C° 0 mm 2 mps 711 mmHg 69%
    14:00 +10°C° 0 mm 2 mps 711 mmHg 68%
    15:00 +10°C° 0 mm 2 mps 710 mmHg 73%
    16:00 +10°C° 0 mm 1 mps 710 mmHg 78%
    17:00 +9°C° 0 mm 1 mps 710 mmHg 83%
    18:00 +7°C° 0 mm 1 mps 709 mmHg 83%
    19:00 +6°C° 0 mm 1 mps 709 mmHg 84%
    20:00 +4°C° 0 mm 2 mps 709 mmHg 85%
    21:00 +3°C° 0 mm 2 mps 709 mmHg 84%
    22:00 +3°C° 0 mm 2 mps 709 mmHg 83%
    23:00 +3°C° 0 mm 2 mps 709 mmHg 82%

    Day after tomorrow, 23 February, Thursday

    Time Temperature Precipitation Wind Pressure Humidity
    00:00 +3°C° 0 mm 2 mps 709 mmHg 82%
    01:00 +3°C° 0 mm 2 mps 709 mmHg 81%
    02:00 +3°C° 0 mm 2 mps 709 mmHg 81%
    03:00 +2°C° 0 mm 2 mps 709 mmHg 81%
    04:00 +2°C° 0 mm 2 mps 709 mmHg 81%
    05:00 +2°C° 0 mm 2 mps 709 mmHg 81%
    06:00 +3°C° 0 mm 2 mps 709 mmHg 80%
    07:00 +3°C° 0 mm 2 mps 709 mmHg 78%
    08:00 +3°C° 0 mm 2 mps 710 mmHg 77%
    09:00 +5°C° 0 mm 2 mps 710 mmHg 72%
    10:00 +9°C° 0 mm 1 mps 710 mmHg 68%
    11:00 +11°C° 0 mm 1 mps 711 mmHg 63%
    12:00 +12°C° 0 mm 1 mps 710 mmHg 61%
    13:00 +13°C° 0 mm 1 mps 710 mmHg 59%
    14:00 +13°C° 0 mm 1 mps 710 mmHg 56%
    15:00 +13°C° 0 mm 1 mps 709 mmHg 62%
    16:00 +12°C° 0 mm 1 mps 709 mmHg 67%
    17:00 +11°C° 0 mm 1 mps 709 mmHg 72%
    18:00 +9°C° 0 mm 1 mps 708 mmHg 75%
    19:00 +8°C° 0 mm 1 mps 708 mmHg 78%
    20:00 +6°C° 0 mm 1 mps 708 mmHg 81%
    21:00 +6°C° 0 mm 1 mps 708 mmHg 81%
    22:00 +4°C° 0 mm 2 mps 708 mmHg 81%
    23:00 +4°C° 0 mm 2 mps 708 mmHg 81%

    24 February, Friday

    Time Temperature Precipitation Wind Pressure Humidity
    00:00 +4°C° 0 mm 2 mps 708 mmHg 81%
    01:00 +3°C° 0 mm 2 mps 708 mmHg 81%
    02:00 +3°C° 0 mm 2 mps 707 mmHg 82%
    03:00 +3°C° 0 mm 2 mps 707 mmHg 82%
    04:00 +3°C° 0 mm 2 mps 707 mmHg 83%
    05:00 +3°C° 0 mm 2 mps 706 mmHg 83%
    06:00 +3°C° 0 mm 2 mps 707 mmHg 83%
    07:00 +3°C° 0 mm 2 mps 707 mmHg 82%
    08:00 +4°C° 0 mm 2 mps 707 mmHg 81%
    09:00 +6°C° 0 mm 2 mps 707 mmHg 75%
    10:00 +8°C° 0 mm 2 mps 707 mmHg 69%
    11:00 +12°C° 0 mm 2 mps 707 mmHg 63%
    12:00 +12°C° 0 mm 3 mps 707 mmHg 61%
    13:00 +12°C° 0 mm 3 mps 706 mmHg 59%
    14:00 +13°C° 0 mm 3 mps 706 mmHg 57%
    15:00 +12°C° 0.1 mm 3 mps 705 mmHg 63%
    16:00 +11°C° 0.1 mm 3 mps 705 mmHg 69%
    17:00 +10°C° 0.1 mm 2 mps 704 mmHg 76%
    18:00 +9°C° 0.1 mm 2 mps 704 mmHg 78%
    19:00 +8°C° 0.1 mm 3 mps 703 mmHg 81%
    20:00 +7°C° 0.1 mm 3 mps 703 mmHg 83%
    21:00 +7°C° 0.1 mm 3 mps 703 mmHg 83%
    22:00 +6°C° 0.1 mm 4 mps 702 mmHg 82%
    23:00 +7°C° 0.1 mm 4 mps 702 mmHg 82%

    25 February, Saturday

    Time Temperature Precipitation Wind Pressure Humidity
    00:00 +6°C° 0.2 mm 4 mps 701 mmHg 83%
    01:00 +6°C° 0.2 mm 4 mps 701 mmHg 84%
    02:00 +7°C° 0.2 mm 3 mps 700 mmHg 86%
    03:00 +5°C° 0.6 mm 4 mps 701 mmHg 88%
    04:00 +5°C° 0.6 mm 4 mps 701 mmHg 90%
    05:00 +4°C° 0.6 mm 4 mps 701 mmHg 91%
    06:00 +3°C° 1.3 mm 4 mps 702 mmHg 91%
    07:00 +3°C° 1.3 mm 4 mps 703 mmHg 91%
    08:00 +1°C° 1.3 mm 4 mps 705 mmHg 91%
    09:00 +1°C° 0.5 mm 4 mps 706 mmHg 89%
    10:00 +1°C° 0.5 mm 4 mps 707 mmHg 87%
    11:00 +1°C° 0.5 mm 5 mps 708 mmHg 84%
    12:00 +2°C° 0.1 mm 5 mps 708 mmHg 82%
    13:00 +2°C° 0.1 mm 5 mps 709 mmHg 80%
    14:00 +2°C° 0.1 mm 5 mps 709 mmHg 78%
    15:00 +2°C° 0 mm 5 mps 710 mmHg 79%
    16:00 +3°C° 0 mm 4 mps 710 mmHg 80%
    17:00 +2°C° 0 mm 3 mps 711 mmHg 81%
    18:00 +1°C° 0 mm 3 mps 712 mmHg 85%
    19:00 +1°C° 0 mm 2 mps 712 mmHg 89%
    20:00 -2°C° 0 mm 2 mps 713 mmHg 92%
    21:00 0°C° 0 mm 1 mps 713 mmHg 92%
    22:00 0°C° 0 mm 1 mps 714 mmHg 91%
    23:00 0°C° 0 mm 1 mps 714 mmHg 91%

    26 February, Sunday

    Time Temperature Precipitation Wind Pressure Humidity
    00:00 0°C° 0 mm 1 mps 714 mmHg 88%
    01:00 0°C° 0 mm 1 mps 714 mmHg 86%
    02:00 0°C° 0 mm 1 mps 714 mmHg 84%
    03:00 0°C° 0 mm 1 mps 714 mmHg 80%
    04:00 0°C° 0 mm 1 mps 714 mmHg 76%
    05:00 0°C° 0 mm 1 mps 713 mmHg 72%
    06:00 +1°C° 0 mm 1 mps 714 mmHg 69%
    07:00 -1°C° 0 mm 2 mps 714 mmHg 65%
    08:00 +1°C° 0 mm 2 mps 714 mmHg 62%
    09:00 +3°C° 0 mm 2 mps 714 mmHg 59%
    10:00 +6°C° 0 mm 2 mps 714 mmHg 57%
    11:00 +8°C° 0 mm 2 mps 714 mmHg 54%
    12:00 +9°C° 0 mm 2 mps 714 mmHg 54%
    13:00 +10°C° 0 mm 2 mps 713 mmHg 54%
    14:00 +12°C° 0 mm 2 mps 713 mmHg 55%
    15:00 +10°C° 0 mm 2 mps 713 mmHg 62%
    16:00 +9°C° 0 mm 2 mps 712 mmHg 68%
    17:00 +10°C° 0 mm 1 mps 712 mmHg 75%
    18:00 +8°C° 0 mm 1 mps 712 mmHg 78%
    19:00 +6°C° 0 mm 1 mps 712 mmHg 81%
    20:00 +4°C° 0 mm 1 mps 712 mmHg 84%
    21:00 +4°C° 0 mm 1 mps 712 mmHg 84%
    22:00 +3°C° 0 mm 2 mps 712 mmHg 83%
    23:00 +3°C° 0 mm 2 mps 713 mmHg 83%
    Show more